Regional Weather Roundup
Issued by NWS

Home | Current Version | Previous Version | Text Only | Print | Product List | Glossary On
Versions: 1 2 3 4 5 6 7 8 9 10 11 12 13 14 15 16 17 18 19 20 21 22 23 24 25 26 27 28 29 30 31 32 33 34 35 36 37 38 39 40 41 42 43 44 45 46 47 48 49 50
000
ASUS44 KOUN 280110
RWROK

WEATHER ROUNDUP FOR OKLAHOMA
NATIONAL WEATHER SERVICE NORMAN OK
800 PM CDT WED JUL 27 2016

NOTE: "FAIR" INDICATES FEW OR NO CLOUDS BELOW 12,000 FEET WITH NO
      SIGNIFICANT WEATHER AND/OR OBSTRUCTIONS TO VISIBILITY.

OKZ001>007-009>012-014-015-017-280200-
NORTHWEST OKLAHOMA AND THE PANHANDLE

CITY           SKY/WX    TMP DP  RH WIND       PRES   REMARKS
GAGE           MOCLDY    88  59  37 NE7       29.97S
GUYMON         TSTM      70  64  81 SW14G38   30.07R
ENID/WOODRING  MOCLDY    88  72  58 E14       29.90S HX  94
$$

OKZ016-021>023-033>039-044-045-280200-
SOUTHWEST OKLAHOMA

CITY           SKY/WX    TMP DP  RH WIND       PRES   REMARKS
LAWTON/REGL    CLEAR     91  70  49 E12       29.88R HX  96
LAWTON/FT SILL CLEAR     89  73  58 SE10      29.88R HX  96
FREDERICK      MOCLDY    93  69  45 E10       29.85S HX  98
CLINTON        PTCLDY    90  65  43 E8        29.95R HX  92
HOBART         CLEAR     89  70  53 E9        29.91R HX  94
ALTUS AFB      PTCLDY    91  63  39 E2        29.88S HX  92
$$

OKZ018>020-024>031-280200-
CENTRAL OKLAHOMA

CITY           SKY/WX    TMP DP  RH WIND       PRES   REMARKS
OKLAHOMA CITY  CLOUDY    75  72  90 S6        29.92F
OKC/WILEY POST CLOUDY    78  71  79 S9        29.92R
OKC/TINKER AFB CLOUDY    77  73  87 S6        29.92R
STILLWATER     CLOUDY    84  71  65 SE7       29.91R
GUTHRIE        MOCLDY    86  73  65 E7        29.91R HX  93
$$

OKZ008-013-054>072-280200-
NORTHEAST OKLAHOMA

CITY           SKY/WX    TMP DP  RH WIND       PRES   REMARKS
TULSA          CLOUDY    82  76  81 N5        29.90R
TULSA/JONES    CLOUDY    79  78  97 CALM      29.91R
PONCA CITY     PTCLDY    86  69  56 SE10      29.91R HX  90
BARTLESVILLE   PTCLDY    85  75  72 S3        29.91S HX  93
MUSKOGEE       PTCLDY    80  75  84 SE3       29.91R
$$

OKZ032-040>043-046>053-073>077-280200-
SOUTH CENTRAL/SOUTHEAST OKLAHOMA

CITY           SKY/WX    TMP DP  RH WIND       PRES   REMARKS
ARDMORE/DWNTWN PTCLDY    82  72  69 SE3       29.90R
MCALESTER      PTCLDY    82  74  76 VRB3      29.92R
$$




USA.gov is the U.S. government's official web portal to all federal, state and local government web resources and services.